Location: Keppel Henge
(44.7900°N, 80.9447°W)
Time: 13:47:44
(UTC-04:00)

ISS - Pass Details

Date: 12 October 2017
Orbit: 401 x 408 km, 51.6° (Epoch: 22 October)

Event Time Altitude Azimuth Distance (km) Brightness Sun altitude
Rises 21:09:27 0° 290° (WNW) 2,327 1.4 -26.4°
Reaches altitude 10° 21:11:56 10° 271° (W) 1,464 -0.1 -26.9°
Enters shadow 21:13:19 17° 249° (WSW) 1,130 -1.0 -27.1°
